Location: Newark
(48.6461°N, 4.3644°W)
Time: 19:43:34
(UTC+00:00)

Transit 4A - Pass Details

Date: 30 January 2020
Orbit: 872 x 973 km, 66.8° (Epoch: 20 February)

Event Time Altitude Azimuth Distance (km) Brightness Sun altitude
Rises 14:01:46 0° 324° (NW) 3,474 10.6 20.6°
Reaches altitude 10° 14:04:15 10° 325° (NW) 2,530 9.9 20.5°
Maximum altitude 14:10:06 85° 54° (NE) 885 8.1 20.1°
Drops below altitude 10° 14:15:59 10° 144° (SE) 2,538 10.6 19.6°
Sets 14:18:29 0° 145° (SE) 3,484 11.3 19.4°
